Simultaneous Nadir Overpasses (SNOs) Predictions

Prediction of SNOs between AQUA and METOP-B Satellite Orbit:

Table of predicted SNOs for the next 14.0 days since TLE Epoch: 3/5/2022
Index Date (AQUA) Time (AQUA) Lat,Lon (AQUA) SZA (AQUA ) Date (METOP-B) Time (METOP-B) Lat,Lon (METOP-B) SZA (METOP-B ) Distance(km) Time Diff (sec)
1 03/05/2022 20:20:57 -73.87, 49.14 100.24 03/05/2022 20:20:14 -73.85, 49.14 100.24 1.63 43
2 03/05/2022 21:10:26 73.94,-143.39 79.83 03/05/2022 21:10:52 73.93,-143.35 79.81 2.03 26
3 03/08/2022 15:55:04 -73.88, 115.58 101.32 03/08/2022 15:54:34 -73.87, 115.58 101.33 2.07 30
4 03/08/2022 16:44:33 73.96, -76.96 78.75 03/08/2022 16:45:12 73.94, -76.91 78.72 2.85 39
5 03/11/2022 10:39:33 73.21, 15.85 76.87 03/11/2022 10:38:27 73.17, 13.06 76.96 89.74 66
6 03/11/2022 11:29:11 -73.87,-177.91 102.44 03/11/2022 11:28:55 -73.87,-178.00 102.43 2.61 16
7 03/11/2022 12:18:40 73.95, -10.45 77.63 03/11/2022 12:19:33 73.94, -10.49 77.62 1.25 53
8 03/14/2022 06:13:50 73.74, 81.20 76.32 03/14/2022 06:12:38 73.67, 80.61 76.29 20.28 72
9 03/14/2022 07:03:19 -73.93,-111.56 103.50 03/14/2022 07:03:15 -73.93,-111.46 103.50 3.06 4
10 03/14/2022 07:52:47 73.96, 56.01 76.53 03/14/2022 07:53:54 73.95, 55.92 76.51 2.84 67
11 03/17/2022 01:47:58 73.88, 147.39 75.35 03/17/2022 01:46:54 73.87, 147.48 75.35 3.05 64
12 03/17/2022 02:37:24 -73.90, -45.02 104.64 03/17/2022 02:37:35 -73.93, -45.06 104.62 2.63 11



Historial Predications of SNOs between AQUA and METOP-B
